Time,TemperatureF,DewpointF,PressureIn,WindDirection,WindDirectionDegrees,WindSpeedMPH,WindSpeedGustMPH,Humidity,HourlyPrecipIn,Conditions,Clouds,dailyrainin,SoftwareType,DateUTC
2014-03-05 00:09:00,15.9,11.9,30.22,East,86,1.0,1.0,84,0.00,,,0.00,Wunderground v.1.15,2014-03-05 06:09:00,
2014-03-05 00:14:00,15.9,11.9,30.22,NE,46,1.0,1.0,84,0.00,,,0.00,Wunderground v.1.15,2014-03-05 06:14:00,
2014-03-05 00:19:00,15.9,11.9,30.22,NE,49,1.0,1.0,84,0.00,,,0.00,Wunderground v.1.15,2014-03-05 06:19:00,
2014-03-05 00:29:00,15.9,11.7,30.23,NE,37,0.0,0.0,83,0.00,,,0.00,Wunderground v.1.15,2014-03-05 06:29:00,
2014-03-05 00:34:00,15.9,11.7,30.24,NNE,33,0.0,1.0,83,0.00,,,0.00,Wunderground v.1.15,2014-03-05 06:34:00,
2014-03-05 00:44:00,15.9,11.1,30.24,ENE,77,0.0,0.0,81,0.00,,,0.00,Wunderground v.1.15,2014-03-05 06:44:00,
2014-03-05 00:49:00,15.9,11.1,30.24,East,96,0.0,0.0,81,0.00,,,0.00,Wunderground v.1.15,2014-03-05 06:49:00,
2014-03-05 00:59:00,15.8,11.0,30.25,ENE,65,0.0,0.0,81,0.00,,,0.00,Wunderground v.1.15,2014-03-05 06:59:00,
2014-03-05 01:09:00,15.7,11.5,30.26,East,99,1.0,1.0,83,0.00,,,0.00,Wunderground v.1.15,2014-03-05 07:09:00,
2014-03-05 01:15:00,15.6,11.6,30.27,NNE,27,0.0,1.0,84,0.00,,,0.00,Wunderground v.1.15,2014-03-05 07:15:00,
2014-03-05 01:25:00,15.4,11.7,30.28,ESE,122,0.0,1.0,85,0.00,,,0.00,Wunderground v.1.15,2014-03-05 07:25:00,
2014-03-05 01:35:00,15.4,12.0,30.28,NNE,30,0.0,0.0,86,0.00,,,0.00,Wunderground v.1.15,2014-03-05 07:35:00,
2014-03-05 01:40:00,15.4,12.0,30.28,ENE,65,0.0,0.0,86,0.00,,,0.00,Wunderground v.1.15,2014-03-05 07:40:00,
2014-03-05 01:45:00,15.3,12.1,30.28,NE,40,0.0,0.0,87,0.00,,,0.00,Wunderground v.1.15,2014-03-05 07:45:00,
2014-03-05 01:55:00,15.2,12.0,30.28,NE,37,0.0,0.0,87,0.00,,,0.00,Wunderground v.1.15,2014-03-05 07:55:00,
2014-03-05 02:00:00,15.2,12.0,30.28,ENE,63,0.0,0.0,87,0.00,,,0.00,Wunderground v.1.15,2014-03-05 08:00:00,
2014-03-05 02:10:00,15.1,11.9,30.28,NNE,18,0.0,1.0,87,0.00,,,0.00,Wunderground v.1.15,2014-03-05 08:10:00,
2014-03-05 02:20:00,15.1,12.2,30.28,NNE,18,0.0,0.0,88,0.00,,,0.00,Wunderground v.1.15,2014-03-05 08:20:00,
2014-03-05 02:25:00,15.1,12.2,30.28,NNE,18,0.0,0.0,88,0.00,,,0.00,Wunderground v.1.15,2014-03-05 08:25:00,
2014-03-05 02:35:00,15.0,12.1,30.28,ENE,58,0.0,0.0,88,0.00,,,0.00,Wunderground v.1.15,2014-03-05 08:35:00,
2014-03-05 02:40:00,15.0,12.1,30.27,NNE,30,0.0,0.0,88,0.00,,,0.00,Wunderground v.1.15,2014-03-05 08:40:00,
2014-03-05 02:50:00,15.0,12.1,30.27,ENE,74,1.0,1.0,88,0.00,,,0.00,Wunderground v.1.15,2014-03-05 08:50:00,
2014-03-05 02:55:00,14.9,12.0,30.27,East,84,1.0,1.0,88,0.00,,,0.00,Wunderground v.1.15,2014-03-05 08:55:00,
2014-03-05 03:00:00,14.8,11.9,30.28,ENE,64,1.0,1.0,88,0.00,,,0.00,Wunderground v.1.15,2014-03-05 09:00:00,
2014-03-05 03:10:00,14.8,11.9,30.28,North,1,1.0,1.0,88,0.00,,,0.00,Wunderground v.1.15,2014-03-05 09:10:00,
2014-03-05 03:20:00,14.8,11.6,30.28,SE,141,1.0,1.0,87,0.00,,,0.00,Wunderground v.1.15,2014-03-05 09:20:00,
2014-03-05 03:25:00,14.8,11.6,30.28,ENE,60,1.0,2.0,87,0.00,,,0.00,Wunderground v.1.15,2014-03-05 09:25:00,
2014-03-05 03:34:00,14.8,11.6,30.28,NE,37,0.0,2.0,87,0.00,,,0.00,Wunderground v.1.15,2014-03-05 09:34:00,
2014-03-05 03:44:00,14.8,11.6,30.29,NE,53,1.0,1.0,87,0.00,,,0.00,Wunderground v.1.15,2014-03-05 09:44:00,
2014-03-05 03:49:00,14.8,11.6,30.29,NE,53,1.0,1.0,87,0.00,,,0.00,Wunderground v.1.15,2014-03-05 09:49:00,
2014-03-05 03:55:00,14.8,11.6,30.29,ENE,65,1.0,1.0,87,0.00,,,0.00,Wunderground v.1.15,2014-03-05 09:55:00,
2014-03-05 04:00:00,14.8,11.6,30.29,East,91,0.0,0.0,87,0.00,,,0.00,Wunderground v.1.15,2014-03-05 10:00:00,
2014-03-05 04:09:00,14.7,11.5,30.29,NNE,33,0.0,0.0,87,0.00,,,0.00,Wunderground v.1.15,2014-03-05 10:09:00,
2014-03-05 04:14:00,14.7,11.5,30.30,ENE,65,1.0,1.0,87,0.00,,,0.00,Wunderground v.1.15,2014-03-05 10:14:00,
2014-03-05 04:19:00,14.7,11.5,30.30,ENE,70,1.0,1.0,87,0.00,,,0.00,Wunderground v.1.15,2014-03-05 10:19:00,
2014-03-05 04:29:00,14.6,11.4,30.31,NE,43,1.0,2.0,87,0.00,,,0.00,Wunderground v.1.15,2014-03-05 10:29:00,
2014-03-05 04:34:00,14.7,11.8,30.31,NE,37,1.0,2.0,88,0.00,,,0.00,Wunderground v.1.15,2014-03-05 10:34:00,
2014-03-05 04:44:00,14.6,11.7,30.31,ENE,68,2.0,3.0,88,0.00,,,0.00,Wunderground v.1.15,2014-03-05 10:44:00,
2014-03-05 04:54:00,14.6,11.7,30.32,NNE,30,2.0,3.0,88,0.00,,,0.00,Wunderground v.1.15,2014-03-05 10:54:00,
2014-03-05 04:59:00,14.6,11.7,30.32,NE,53,1.0,1.0,88,0.00,,,0.00,Wunderground v.1.15,2014-03-05 10:59:00,
2014-03-05 05:09:00,14.6,11.7,30.33,NE,37,2.0,2.0,88,0.00,,,0.00,Wunderground v.1.15,2014-03-05 11:09:00,
2014-03-05 05:14:00,14.6,11.7,30.33,ESE,103,2.0,2.0,88,0.00,,,0.00,Wunderground v.1.15,2014-03-05 11:14:00,
2014-03-05 05:24:00,14.6,11.7,30.33,North,9,2.0,3.0,88,0.00,,,0.00,Wunderground v.1.15,2014-03-05 11:24:00,
2014-03-05 05:29:00,14.6,11.7,30.33,NE,51,2.0,2.0,88,0.00,,,0.00,Wunderground v.1.15,2014-03-05 11:29:00,
2014-03-05 05:39:00,14.5,11.6,30.33,NE,44,2.0,2.0,88,0.00,,,0.00,Wunderground v.1.15,2014-03-05 11:39:00,
2014-03-05 05:44:00,14.5,11.6,30.33,NE,41,1.0,4.0,88,0.00,,,0.00,Wunderground v.1.15,2014-03-05 11:44:00,
2014-03-05 05:54:00,14.5,11.6,30.34,NE,51,2.0,6.0,88,0.00,,,0.00,Wunderground v.1.15,2014-03-05 11:54:00,
2014-03-05 05:59:00,14.5,11.6,30.34,NE,53,2.0,3.0,88,0.00,,,0.00,Wunderground v.1.15,2014-03-05 11:59:00,
2014-03-05 06:10:00,14.4,11.5,30.34,ENE,67,1.0,1.0,88,0.00,,,0.00,Wunderground v.1.15,2014-03-05 12:10:00,
2014-03-05 06:15:00,14.4,11.5,30.34,NE,44,2.0,2.0,88,0.00,,,0.00,Wunderground v.1.15,2014-03-05 12:15:00,
2014-03-05 06:25:00,14.4,11.5,30.35,East,89,1.0,3.0,88,0.00,,,0.00,Wunderground v.1.15,2014-03-05 12:25:00,
2014-03-05 06:30:00,14.4,11.5,30.35,East,79,1.0,1.0,88,0.00,,,0.00,Wunderground v.1.15,2014-03-05 12:30:00,
2014-03-05 06:40:00,14.4,11.5,30.34,ENE,65,1.0,1.0,88,0.00,,,0.00,Wunderground v.1.15,2014-03-05 12:40:00,
2014-03-05 06:45:00,14.4,11.2,30.35,NE,39,2.0,2.0,87,0.00,,,0.00,Wunderground v.1.15,2014-03-05 12:45:00,
2014-03-05 06:55:00,14.6,11.4,30.35,NE,36,1.0,2.0,87,0.00,,,0.00,Wunderground v.1.15,2014-03-05 12:55:00,
2014-03-05 07:00:00,14.7,11.3,30.35,ESE,102,1.0,1.0,86,0.00,,,0.00,Wunderground v.1.15,2014-03-05 13:00:00,
2014-03-05 07:10:00,14.8,11.1,30.35,NNE,22,1.0,4.0,85,0.00,,,0.00,Wunderground v.1.15,2014-03-05 13:10:00,
2014-03-05 07:15:00,14.9,11.2,30.35,NE,53,2.0,4.0,85,0.00,,,0.00,Wunderground v.1.15,2014-03-05 13:15:00,
2014-03-05 07:20:00,14.9,10.9,30.35,ENE,72,2.0,4.0,84,0.00,,,0.00,Wunderground v.1.15,2014-03-05 13:20:00,
2014-03-05 07:30:00,15.1,11.1,30.36,NE,44,2.0,2.0,84,0.00,,,0.00,Wunderground v.1.15,2014-03-05 13:30:00,
2014-03-05 07:35:00,15.2,11.0,30.36,East,84,2.0,2.0,83,0.00,,,0.00,Wunderground v.1.15,2014-03-05 13:35:00,
2014-03-05 07:40:00,15.3,11.1,30.36,ENE,63,2.0,2.0,83,0.00,,,0.00,Wunderground v.1.15,2014-03-05 13:40:00,
2014-03-05 07:45:00,15.5,11.3,30.36,NE,44,2.0,2.0,83,0.00,,,0.00,Wunderground v.1.15,2014-03-05 13:45:00,
2014-03-05 07:55:00,15.7,11.2,30.37,NNE,30,1.0,2.0,82,0.00,,,0.00,Wunderground v.1.15,2014-03-05 13:55:00,
2014-03-05 08:00:00,15.7,11.2,30.37,NE,44,2.0,3.0,82,0.00,,,0.00,Wunderground v.1.15,2014-03-05 14:00:00,
2014-03-05 08:10:00,15.8,11.3,30.38,ESE,103,3.0,3.0,82,0.00,,,0.00,Wunderground v.1.15,2014-03-05 14:10:00,
2014-03-05 08:15:00,15.9,11.4,30.38,ESE,107,2.0,3.0,82,0.00,,,0.00,Wunderground v.1.15,2014-03-05 14:15:00,
2014-03-05 08:25:00,15.9,11.1,30.39,ENE,59,3.0,3.0,81,0.00,,,0.00,Wunderground v.1.15,2014-03-05 14:25:00,
2014-03-05 08:30:00,16.2,11.4,30.39,ESE,102,3.0,3.0,81,0.00,,,0.00,Wunderground v.1.15,2014-03-05 14:30:00,
2014-03-05 08:40:00,16.9,11.8,30.39,ENE,58,2.0,2.0,80,0.00,,,0.00,Wunderground v.1.15,2014-03-05 14:40:00,
2014-03-05 08:45:00,17.1,11.7,30.39,East,97,3.0,4.0,79,0.00,,,0.00,Wunderground v.1.15,2014-03-05 14:45:00,
2014-03-05 08:55:00,17.6,12.2,30.39,ESE,120,3.0,3.0,79,0.00,,,0.00,Wunderground v.1.15,2014-03-05 14:55:00,
2014-03-05 09:00:00,18.2,12.5,30.39,NNE,27,3.0,4.0,78,0.00,,,0.00,Wunderground v.1.15,2014-03-05 15:00:00,
2014-03-05 09:10:00,18.5,12.2,30.40,NE,45,3.0,3.0,76,0.00,,,0.00,Wunderground v.1.15,2014-03-05 15:10:00,
2014-03-05 09:20:00,17.8,11.5,30.40,NNE,23,3.0,3.0,76,0.00,,,0.00,Wunderground v.1.15,2014-03-05 15:20:00,
2014-03-05 09:25:00,17.9,11.3,30.40,NE,54,3.0,3.0,75,0.00,,,0.00,Wunderground v.1.15,2014-03-05 15:25:00,
2014-03-05 09:30:00,18.2,11.6,30.40,East,91,3.0,3.0,75,0.00,,,0.00,Wunderground v.1.15,2014-03-05 15:30:00,
2014-03-05 09:40:00,18.0,10.8,30.40,East,93,4.0,4.0,73,0.00,,,0.00,Wunderground v.1.15,2014-03-05 15:40:00,
2014-03-05 09:49:00,18.6,11.7,30.40,East,81,3.0,5.0,74,0.00,,,0.00,Wunderground v.1.15,2014-03-05 15:49:00,
2014-03-05 09:55:00,18.7,11.5,30.40,ENE,63,3.0,5.0,73,0.00,,,0.00,Wunderground v.1.15,2014-03-05 15:55:00,
2014-03-05 10:00:00,19.3,11.7,30.40,ESE,110,3.0,3.0,72,0.00,,,0.00,Wunderground v.1.15,2014-03-05 16:00:00,
2014-03-05 10:10:00,19.3,11.4,30.41,ESE,112,3.0,3.0,71,0.00,,,0.00,Wunderground v.1.15,2014-03-05 16:10:00,
2014-03-05 10:19:00,19.5,11.3,30.41,East,81,3.0,3.0,70,0.00,,,0.00,Wunderground v.1.15,2014-03-05 16:19:00,
2014-03-05 10:29:00,19.7,11.5,30.41,ESE,103,3.0,3.0,70,0.00,,,0.00,Wunderground v.1.15,2014-03-05 16:29:00,
2014-03-05 10:34:00,19.8,11.3,30.41,ESE,117,3.0,3.0,69,0.00,,,0.00,Wunderground v.1.15,2014-03-05 16:34:00,
2014-03-05 10:44:00,19.7,10.5,30.41,ESE,115,4.0,4.0,67,0.00,,,0.00,Wunderground v.1.15,2014-03-05 16:44:00,
2014-03-05 10:49:00,19.7,10.8,30.41,NE,43,4.0,4.0,68,0.00,,,0.00,Wunderground v.1.15,2014-03-05 16:49:00,
2014-03-05 11:00:00,20.5,11.3,30.41,NE,51,3.0,5.0,67,0.00,,,0.00,Wunderground v.1.15,2014-03-05 17:00:00,
2014-03-05 11:09:00,19.7,10.5,30.41,ENE,73,4.0,4.0,67,0.00,,,0.00,Wunderground v.1.15,2014-03-05 17:09:00,
2014-03-05 11:19:00,20.2,10.6,30.41,ENE,68,3.0,3.0,66,0.00,,,0.00,Wunderground v.1.15,2014-03-05 17:19:00,
2014-03-05 11:29:00,20.3,10.4,30.41,ENE,70,3.0,3.0,65,0.00,,,0.00,Wunderground v.1.15,2014-03-05 17:29:00,
2014-03-05 11:34:00,20.5,10.9,30.41,ENE,70,3.0,3.0,66,0.00,,,0.00,Wunderground v.1.15,2014-03-05 17:34:00,
2014-03-05 11:44:00,21.3,11.4,30.41,ESE,117,2.0,3.0,65,0.00,,,0.00,Wunderground v.1.15,2014-03-05 17:44:00,
2014-03-05 11:49:00,21.5,11.2,30.41,SE,140,3.0,3.0,64,0.00,,,0.00,Wunderground v.1.15,2014-03-05 17:49:00,
2014-03-05 11:59:00,21.1,10.8,30.41,NE,54,3.0,4.0,64,0.00,,,0.00,Wunderground v.1.15,2014-03-05 17:59:00,
2014-03-05 12:09:00,21.1,10.8,30.41,NE,37,4.0,4.0,64,0.00,,,0.00,Wunderground v.1.15,2014-03-05 18:09:00,
2014-03-05 12:14:00,20.8,10.2,30.41,ESE,110,4.0,4.0,63,0.00,,,0.00,Wunderground v.1.15,2014-03-05 18:14:00,
2014-03-05 12:24:00,20.9,11.0,30.41,ENE,59,4.0,5.0,65,0.00,,,0.00,Wunderground v.1.15,2014-03-05 18:24:00,
2014-03-05 12:29:00,21.1,10.5,30.41,NW,311,4.0,4.0,63,0.00,,,0.00,Wunderground v.1.15,2014-03-05 18:29:00,
2014-03-05 12:39:00,21.5,11.2,30.41,NE,41,4.0,5.0,64,0.00,,,0.00,Wunderground v.1.15,2014-03-05 18:39:00,
2014-03-05 12:49:00,22.0,11.7,30.41,ESE,110,2.0,3.0,64,0.00,,,0.00,Wunderground v.1.15,2014-03-05 18:49:00,
2014-03-05 12:54:00,22.0,11.0,30.41,East,100,3.0,3.0,62,0.00,,,0.00,Wunderground v.1.15,2014-03-05 18:54:00,
2014-03-05 12:59:00,21.9,11.2,30.41,NE,43,3.0,5.0,63,0.00,,,0.00,Wunderground v.1.15,2014-03-05 18:59:00,
2014-03-05 13:09:00,22.4,11.3,30.41,SE,138,3.0,3.0,62,0.00,,,0.00,Wunderground v.1.15,2014-03-05 19:09:00,
2014-03-05 13:14:00,22.6,11.5,30.41,ESE,102,2.0,3.0,62,0.00,,,0.00,Wunderground v.1.15,2014-03-05 19:14:00,
2014-03-05 13:19:00,22.5,11.4,30.41,ENE,61,2.0,3.0,62,0.00,,,0.00,Wunderground v.1.15,2014-03-05 19:19:00,
2014-03-05 13:29:00,22.5,11.1,30.41,ESE,109,3.0,3.0,61,0.00,,,0.00,Wunderground v.1.15,2014-03-05 19:29:00,
2014-03-05 13:34:00,22.6,11.5,30.40,NNE,25,3.0,3.0,62,0.00,,,0.00,Wunderground v.1.15,2014-03-05 19:34:00,
2014-03-05 13:39:00,22.6,11.5,30.40,SSE,167,2.0,2.0,62,0.00,,,0.00,Wunderground v.1.15,2014-03-05 19:39:00,
2014-03-05 13:49:00,22.4,11.3,30.40,NNE,18,2.0,3.0,62,0.00,,,0.00,Wunderground v.1.15,2014-03-05 19:49:00,
2014-03-05 13:59:00,22.2,11.5,30.40,NE,50,3.0,8.0,63,0.00,,,0.00,Wunderground v.1.15,2014-03-05 19:59:00,
2014-03-05 14:09:00,22.6,12.2,30.40,NNE,23,2.0,3.0,64,0.00,,,0.00,Wunderground v.1.15,2014-03-05 20:09:00,
2014-03-05 14:14:00,22.6,11.9,30.40,East,80,2.0,5.0,63,0.00,,,0.00,Wunderground v.1.15,2014-03-05 20:14:00,
2014-03-05 14:19:00,22.2,11.5,30.40,NW,318,3.0,3.0,63,0.00,,,0.00,Wunderground v.1.15,2014-03-05 20:19:00,
2014-03-05 14:29:00,21.8,11.5,30.40,SSE,159,3.0,3.0,64,0.00,,,0.00,Wunderground v.1.15,2014-03-05 20:29:00,
2014-03-05 14:34:00,21.9,11.2,30.40,ENE,61,2.0,3.0,63,0.00,,,0.00,Wunderground v.1.15,2014-03-05 20:34:00,
2014-03-05 14:44:00,21.9,11.2,30.40,ENE,57,3.0,9.0,63,0.00,,,0.00,Wunderground v.1.15,2014-03-05 20:44:00,
2014-03-05 14:49:00,21.8,11.5,30.40,East,84,3.0,3.0,64,0.00,,,0.00,Wunderground v.1.15,2014-03-05 20:49:00,
2014-03-05 14:59:00,22.2,11.5,30.40,East,79,3.0,3.0,63,0.00,,,0.00,Wunderground v.1.15,2014-03-05 20:59:00,
2014-03-05 15:09:00,21.5,11.2,30.40,NE,34,3.0,5.0,64,0.00,,,0.00,Wunderground v.1.15,2014-03-05 21:09:00,
2014-03-05 15:14:00,21.2,10.9,30.40,ENE,77,3.0,5.0,64,0.00,,,0.00,Wunderground v.1.15,2014-03-05 21:14:00,
2014-03-05 15:24:00,21.1,10.8,30.39,East,81,3.0,3.0,64,0.00,,,0.00,Wunderground v.1.15,2014-03-05 21:24:00,
2014-03-05 15:29:00,20.9,10.6,30.40,ESE,108,3.0,3.0,64,0.00,,,0.00,Wunderground v.1.15,2014-03-05 21:29:00,
2014-03-05 15:39:00,21.2,10.9,30.40,NE,36,2.0,3.0,64,0.00,,,0.00,Wunderground v.1.15,2014-03-05 21:39:00,
2014-03-05 15:44:00,20.9,10.6,30.40,NNE,27,3.0,3.0,64,0.00,,,0.00,Wunderground v.1.15,2014-03-05 21:44:00,
2014-03-05 15:54:00,20.8,10.9,30.40,NE,51,3.0,3.0,65,0.00,,,0.00,Wunderground v.1.15,2014-03-05 21:54:00,
2014-03-05 15:59:00,20.8,10.5,30.40,North,11,3.0,3.0,64,0.00,,,0.00,Wunderground v.1.15,2014-03-05 21:59:00,
2014-03-05 16:09:00,20.4,10.1,30.40,East,84,3.0,3.0,64,0.00,,,0.00,Wunderground v.1.15,2014-03-05 22:09:00,
2014-03-05 16:19:00,20.5,10.6,30.40,NE,36,2.0,2.0,65,0.00,,,0.00,Wunderground v.1.15,2014-03-05 22:19:00,
2014-03-05 16:24:00,20.4,10.5,30.40,ESE,117,2.0,2.0,65,0.00,,,0.00,Wunderground v.1.15,2014-03-05 22:24:00,
2014-03-05 16:34:00,19.8,9.9,30.40,NNE,25,3.0,4.0,65,0.00,,,0.00,Wunderground v.1.15,2014-03-05 22:34:00,
2014-03-05 16:44:00,19.2,9.7,30.41,NNE,19,3.0,5.0,66,0.00,,,0.00,Wunderground v.1.15,2014-03-05 22:44:00,
2014-03-05 16:49:00,18.9,9.7,30.41,NNE,22,3.0,4.0,67,0.00,,,0.00,Wunderground v.1.15,2014-03-05 22:49:00,
2014-03-05 16:54:00,18.5,9.4,30.41,NE,47,4.0,7.0,67,0.00,,,0.00,Wunderground v.1.15,2014-03-05 22:54:00,
2014-03-05 16:59:00,18.2,9.1,30.41,NNE,33,5.0,5.0,67,0.00,,,0.00,Wunderground v.1.15,2014-03-05 22:59:00,
2014-03-05 17:09:00,17.5,8.7,30.41,NE,34,4.0,6.0,68,0.00,,,0.00,Wunderground v.1.15,2014-03-05 23:09:00,
2014-03-05 17:19:00,17.0,8.6,30.41,NE,51,3.0,3.0,69,0.00,,,0.00,Wunderground v.1.15,2014-03-05 23:19:00,
2014-03-05 17:29:00,16.5,8.4,30.41,NNE,33,3.0,3.0,70,0.00,,,0.00,Wunderground v.1.15,2014-03-05 23:29:00,
2014-03-05 17:39:00,16.0,8.3,30.41,ENE,77,2.0,2.0,71,0.00,,,0.00,Wunderground v.1.15,2014-03-05 23:39:00,
2014-03-05 17:49:00,15.3,7.9,30.41,ESE,122,1.0,1.0,72,0.00,,,0.00,Wunderground v.1.15,2014-03-05 23:49:00,
2014-03-05 17:59:00,14.6,7.5,30.41,ENE,64,1.0,1.0,73,0.00,,,0.00,Wunderground v.1.15,2014-03-05 23:59:00,
2014-03-05 18:08:00,14.2,7.1,30.41,NE,44,1.0,1.0,73,0.00,,,0.00,Wunderground v.1.15,2014-03-06 00:08:00,
2014-03-05 18:13:00,14.2,7.4,30.41,East,94,1.0,1.0,74,0.00,,,0.00,Wunderground v.1.15,2014-03-06 00:13:00,
2014-03-05 18:19:00,14.0,7.2,30.41,NNE,30,1.0,1.0,74,0.00,,,0.00,Wunderground v.1.15,2014-03-06 00:19:00,
2014-03-05 18:29:00,13.8,7.0,30.42,NE,49,2.0,3.0,74,0.00,,,0.00,Wunderground v.1.15,2014-03-06 00:29:00,
2014-03-05 18:39:00,13.7,6.9,30.42,NE,56,3.0,3.0,74,0.00,,,0.00,Wunderground v.1.15,2014-03-06 00:39:00,
2014-03-05 18:48:00,13.3,6.6,30.41,ENE,60,2.0,2.0,74,0.00,,,0.00,Wunderground v.1.15,2014-03-06 00:48:00,
2014-03-05 18:53:00,13.1,6.4,30.41,East,93,2.0,2.0,74,0.00,,,0.00,Wunderground v.1.15,2014-03-06 00:53:00,
2014-03-05 18:59:00,12.9,6.5,30.42,ENE,60,2.0,2.0,75,0.00,,,0.00,Wunderground v.1.15,2014-03-06 00:59:00,
2014-03-05 19:08:00,12.7,6.3,30.42,ENE,63,2.0,2.0,75,0.00,,,0.00,Wunderground v.1.15,2014-03-06 01:08:00,
2014-03-05 19:18:00,12.3,5.9,30.42,East,89,2.0,2.0,75,0.00,,,0.00,Wunderground v.1.15,2014-03-06 01:18:00,
2014-03-05 19:23:00,12.0,5.6,30.42,NE,38,2.0,2.0,75,0.00,,,0.00,Wunderground v.1.15,2014-03-06 01:23:00,
2014-03-05 19:33:00,11.8,5.4,30.42,NE,49,2.0,4.0,75,0.00,,,0.00,Wunderground v.1.15,2014-03-06 01:33:00,
2014-03-05 19:38:00,11.7,5.3,30.42,ENE,65,1.0,5.0,75,0.00,,,0.00,Wunderground v.1.15,2014-03-06 01:38:00,
2014-03-05 19:48:00,11.4,5.0,30.42,NE,35,2.0,2.0,75,0.00,,,0.00,Wunderground v.1.15,2014-03-06 01:48:00,
2014-03-05 19:58:00,10.9,4.8,30.42,NE,49,0.0,0.0,76,0.00,,,0.00,Wunderground v.1.15,2014-03-06 01:58:00,
2014-03-05 20:08:00,10.5,4.4,30.42,ENE,77,0.0,0.0,76,0.00,,,0.00,Wunderground v.1.15,2014-03-06 02:08:00,
2014-03-05 20:13:00,10.3,4.5,30.42,ENE,78,0.0,0.0,77,0.00,,,0.00,Wunderground v.1.15,2014-03-06 02:13:00,
2014-03-05 20:23:00,9.5,3.7,30.42,ENE,78,0.0,0.0,77,0.00,,,0.00,Wunderground v.1.15,2014-03-06 02:23:00,
2014-03-05 20:33:00,8.9,3.4,30.42,ENE,77,0.0,0.0,78,0.00,,,0.00,Wunderground v.1.15,2014-03-06 02:33:00,
2014-03-05 20:43:00,8.1,2.9,30.42,ENE,78,0.0,0.0,79,0.00,,,0.00,Wunderground v.1.15,2014-03-06 02:43:00,
2014-03-05 20:53:00,7.7,3.1,30.42,ENE,78,0.0,0.0,81,0.00,,,0.00,Wunderground v.1.15,2014-03-06 02:53:00,
2014-03-05 20:58:00,7.9,3.3,30.42,ENE,78,0.0,0.0,81,0.00,,,0.00,Wunderground v.1.15,2014-03-06 02:58:00,
2014-03-05 21:03:00,8.0,3.1,30.42,East,98,0.0,0.0,80,0.00,,,0.00,Wunderground v.1.15,2014-03-06 03:03:00,
2014-03-05 21:13:00,8.0,3.1,30.42,East,92,0.0,0.0,80,0.00,,,0.00,Wunderground v.1.15,2014-03-06 03:13:00,
2014-03-05 21:23:00,7.6,2.4,30.42,East,91,0.0,0.0,79,0.00,,,0.00,Wunderground v.1.15,2014-03-06 03:23:00,
2014-03-05 21:33:00,6.7,1.8,30.42,East,92,0.0,0.0,80,0.00,,,0.00,Wunderground v.1.15,2014-03-06 03:33:00,
2014-03-05 21:38:00,6.4,1.8,30.42,East,91,0.0,0.0,81,0.00,,,0.00,Wunderground v.1.15,2014-03-06 03:38:00,
2014-03-05 21:48:00,5.6,1.0,30.42,East,92,0.0,0.0,81,0.00,,,0.00,Wunderground v.1.15,2014-03-06 03:48:00,
2014-03-05 21:58:00,4.9,0.6,30.42,East,92,0.0,0.0,82,0.00,,,0.00,Wunderground v.1.15,2014-03-06 03:58:00,
2014-03-05 22:07:00,4.1,0.1,30.42,ESE,123,0.0,0.0,83,0.00,,,0.00,Wunderground v.1.15,2014-03-06 04:07:00,
2014-03-05 22:13:00,4.1,0.3,30.42,ESE,122,0.0,0.0,84,0.00,,,0.00,Wunderground v.1.15,2014-03-06 04:13:00,
2014-03-05 22:23:00,3.4,-0.3,30.42,ESE,122,0.0,0.0,84,0.00,,,0.00,Wunderground v.1.15,2014-03-06 04:23:00,
2014-03-05 22:33:00,3.3,-0.2,30.41,ESE,122,0.0,0.0,85,0.00,,,0.00,Wunderground v.1.15,2014-03-06 04:33:00,
2014-03-05 22:42:00,3.3,-0.4,30.41,ESE,123,0.0,0.0,84,0.00,,,0.00,Wunderground v.1.15,2014-03-06 04:42:00,
2014-03-05 22:52:00,2.2,-1.5,30.41,ESE,122,0.0,0.0,84,0.00,,,0.00,Wunderground v.1.15,2014-03-06 04:52:00,
2014-03-05 22:58:00,1.8,-1.7,30.41,ESE,122,0.0,0.0,85,0.00,,,0.00,Wunderground v.1.15,2014-03-06 04:58:00,
2014-03-05 23:02:00,1.7,-1.8,30.41,ESE,123,0.0,0.0,85,0.00,,,0.00,Wunderground v.1.15,2014-03-06 05:02:00,
2014-03-05 23:07:00,1.6,-1.6,30.41,ESE,122,0.0,0.0,86,0.00,,,0.00,Wunderground v.1.15,2014-03-06 05:07:00,
2014-03-05 23:17:00,1.2,-2.0,30.40,ESE,123,0.0,0.0,86,0.00,,,0.00,Wunderground v.1.15,2014-03-06 05:17:00,
2014-03-05 23:22:00,1.3,-1.7,30.40,ESE,122,0.0,0.0,87,0.00,,,0.00,Wunderground v.1.15,2014-03-06 05:22:00,
2014-03-05 23:32:00,1.8,-0.9,30.39,ESE,122,0.0,0.0,88,0.00,,,0.00,Wunderground v.1.15,2014-03-06 05:32:00,
2014-03-05 23:42:00,2.0,-0.7,30.39,ESE,123,0.0,0.0,88,0.00,,,0.00,Wunderground v.1.15,2014-03-06 05:42:00,
2014-03-05 23:47:00,1.8,-1.2,30.40,ESE,122,0.0,0.0,87,0.00,,,0.00,Wunderground v.1.15,2014-03-06 05:47:00,
2014-03-05 23:57:00,1.0,-2.0,30.40,ESE,123,0.0,0.0,87,0.00,,,0.00,Wunderground v.1.15,2014-03-06 05:57:00,